Hourly Weather Acıpayam

Today, 7 March, Sunday

Time Temperature Precipitation Wind Pressure Humidity
00:00 +6°C° 0 mm 1 mps 683 mmHg 84%
01:00 +5°C° 0 mm 1 mps 683 mmHg 85%
02:00 +5°C° 0 mm 1 mps 682 mmHg 86%
03:00 +4°C° 0 mm 0 mps 682 mmHg 87%
04:00 +3°C° 0 mm 0 mps 682 mmHg 87%
05:00 +3°C° 0 mm 0 mps 682 mmHg 88%
06:00 +4°C° 0 mm 0 mps 682 mmHg 83%
07:00 +5°C° 0 mm 0 mps 682 mmHg 79%
08:00 +7°C° 0 mm 0 mps 683 mmHg 75%
09:00 +9°C° 0 mm 1 mps 683 mmHg 72%
10:00 +9°C° 0 mm 1 mps 683 mmHg 69%
11:00 +10°C° 0 mm 1 mps 683 mmHg 66%
12:00 +10°C° 0.1 mm 2 mps 683 mmHg 63%
13:00 +10°C° 0.1 mm 2 mps 682 mmHg 61%
14:00 +12°C° 0.1 mm 2 mps 682 mmHg 59%
15:00 +11°C° 0.1 mm 3 mps 682 mmHg 60%
16:00 +10°C° 0.1 mm 3 mps 681 mmHg 61%
17:00 +10°C° 0.1 mm 3 mps 681 mmHg 61%
18:00 +8°C° 0 mm 3 mps 681 mmHg 67%
19:00 +7°C° 0 mm 2 mps 681 mmHg 72%
20:00 +6°C° 0 mm 2 mps 681 mmHg 78%
21:00 +6°C° 0 mm 1 mps 680 mmHg 80%
22:00 +6°C° 0 mm 1 mps 680 mmHg 82%
23:00 +5°C° 0 mm 1 mps 680 mmHg 84%

Tomorrow, 8 March, Monday

Time Temperature Precipitation Wind Pressure Humidity
00:00 +4°C° 0 mm 1 mps 680 mmHg 85%
01:00 +4°C° 0 mm 1 mps 680 mmHg 86%
02:00 +3°C° 0 mm 1 mps 679 mmHg 88%
03:00 +3°C° 0 mm 1 mps 679 mmHg 88%
04:00 +3°C° 0 mm 1 mps 679 mmHg 88%
05:00 +1°C° 0 mm 0 mps 679 mmHg 88%
06:00 +2°C° 0 mm 0 mps 679 mmHg 82%
07:00 +3°C° 0 mm 0 mps 679 mmHg 75%
08:00 +4°C° 0 mm 0 mps 679 mmHg 68%
09:00 +7°C° 0 mm 1 mps 680 mmHg 58%
10:00 +9°C° 0 mm 1 mps 680 mmHg 47%
11:00 +10°C° 0 mm 1 mps 680 mmHg 36%
12:00 +10°C° 0 mm 2 mps 680 mmHg 34%
13:00 +12°C° 0 mm 2 mps 680 mmHg 31%
14:00 +12°C° 0 mm 3 mps 680 mmHg 28%
15:00 +11°C° 0 mm 3 mps 679 mmHg 30%
16:00 +11°C° 0 mm 3 mps 679 mmHg 31%
17:00 +10°C° 0 mm 2 mps 679 mmHg 33%
18:00 +9°C° 0 mm 2 mps 679 mmHg 39%
19:00 +8°C° 0 mm 1 mps 679 mmHg 45%
20:00 +7°C° 0 mm 1 mps 679 mmHg 51%
21:00 +6°C° 0 mm 0 mps 679 mmHg 52%
22:00 +5°C° 0 mm 0 mps 679 mmHg 53%
23:00 +5°C° 0 mm 0 mps 679 mmHg 54%

Day after tomorrow, 9 March, Tuesday

Time Temperature Precipitation Wind Pressure Humidity
00:00 +4°C° 0 mm 0 mps 679 mmHg 54%
01:00 +4°C° 0 mm 0 mps 679 mmHg 54%
02:00 +4°C° 0 mm 0 mps 679 mmHg 54%
03:00 +4°C° 0 mm 0 mps 679 mmHg 54%
04:00 +3°C° 0 mm 0 mps 678 mmHg 54%
05:00 +3°C° 0 mm 0 mps 678 mmHg 54%
06:00 +4°C° 0 mm 0 mps 679 mmHg 50%
07:00 +5°C° 0 mm 0 mps 679 mmHg 45%
08:00 +7°C° 0 mm 0 mps 680 mmHg 41%
09:00 +9°C° 0 mm 1 mps 680 mmHg 37%
10:00 +10°C° 0 mm 1 mps 680 mmHg 34%
11:00 +12°C° 0 mm 1 mps 680 mmHg 31%
12:00 +13°C° 0 mm 1 mps 680 mmHg 29%
13:00 +14°C° 0 mm 2 mps 680 mmHg 28%
14:00 +15°C° 0 mm 2 mps 680 mmHg 27%
15:00 +14°C° 0 mm 2 mps 680 mmHg 30%
16:00 +14°C° 0 mm 2 mps 680 mmHg 33%
17:00 +14°C° 0 mm 2 mps 680 mmHg 35%
18:00 +12°C° 0 mm 1 mps 680 mmHg 43%
19:00 +11°C° 0 mm 1 mps 680 mmHg 50%
20:00 +8°C° 0 mm 0 mps 680 mmHg 57%
21:00 +8°C° 0 mm 0 mps 680 mmHg 59%
22:00 +7°C° 0 mm 0 mps 679 mmHg 61%
23:00 +7°C° 0 mm 0 mps 679 mmHg 63%

10 March, Wednesday

Time Temperature Precipitation Wind Pressure Humidity
00:00 +6°C° 0 mm 0 mps 679 mmHg 64%
01:00 +6°C° 0 mm 0 mps 679 mmHg 66%
02:00 +6°C° 0 mm 0 mps 679 mmHg 67%
03:00 +6°C° 0 mm 0 mps 678 mmHg 68%
04:00 +6°C° 0 mm 0 mps 678 mmHg 69%
05:00 +6°C° 0 mm 0 mps 678 mmHg 70%
06:00 +7°C° 0 mm 0 mps 678 mmHg 65%
07:00 +8°C° 0 mm 0 mps 679 mmHg 61%
08:00 +10°C° 0 mm 0 mps 679 mmHg 56%
09:00 +12°C° 0 mm 1 mps 679 mmHg 51%
10:00 +13°C° 0 mm 1 mps 679 mmHg 46%
11:00 +15°C° 0 mm 1 mps 679 mmHg 41%
12:00 +15°C° 0 mm 2 mps 679 mmHg 41%
13:00 +16°C° 0 mm 3 mps 679 mmHg 40%
14:00 +15°C° 0 mm 4 mps 678 mmHg 40%
15:00 +14°C° 0 mm 5 mps 678 mmHg 43%
16:00 +14°C° 0 mm 5 mps 677 mmHg 46%
17:00 +13°C° 0 mm 5 mps 677 mmHg 49%
18:00 +12°C° 0 mm 4 mps 677 mmHg 56%
19:00 +10°C° 0 mm 3 mps 677 mmHg 63%
20:00 +9°C° 0 mm 2 mps 677 mmHg 71%
21:00 +8°C° 0 mm 2 mps 677 mmHg 74%
22:00 +8°C° 0 mm 2 mps 677 mmHg 77%
23:00 +7°C° 0 mm 2 mps 677 mmHg 80%

11 March, Thursday

Time Temperature Precipitation Wind Pressure Humidity
00:00 +7°C° 0 mm 2 mps 676 mmHg 83%
01:00 +6°C° 0 mm 2 mps 676 mmHg 86%
02:00 +6°C° 0 mm 2 mps 675 mmHg 88%
03:00 +6°C° 0 mm 2 mps 675 mmHg 90%
04:00 +6°C° 0 mm 2 mps 675 mmHg 91%
05:00 +5°C° 0 mm 2 mps 675 mmHg 92%
06:00 +6°C° 0.2 mm 2 mps 675 mmHg 88%
07:00 +7°C° 0.2 mm 2 mps 676 mmHg 84%
08:00 +7°C° 0.2 mm 2 mps 676 mmHg 80%
09:00 +7°C° 0.9 mm 3 mps 676 mmHg 82%
10:00 +5°C° 0.9 mm 3 mps 676 mmHg 83%
11:00 +5°C° 0.9 mm 4 mps 676 mmHg 84%
12:00 +4°C° 0.4 mm 4 mps 676 mmHg 84%
13:00 +3°C° 0.4 mm 5 mps 676 mmHg 85%
14:00 +2°C° 0.4 mm 5 mps 676 mmHg 85%
15:00 +2°C° 0.4 mm 6 mps 677 mmHg 78%
16:00 +2°C° 0.4 mm 7 mps 677 mmHg 72%
17:00 +1°C° 0.4 mm 8 mps 678 mmHg 65%
18:00 0°C° 0 mm 7 mps 678 mmHg 68%
19:00 -2°C° 0 mm 6 mps 679 mmHg 70%
20:00 -2°C° 0 mm 5 mps 680 mmHg 72%
21:00 -2°C° 0 mm 5 mps 681 mmHg 73%
22:00 -3°C° 0 mm 4 mps 681 mmHg 73%
23:00 -2°C° 0 mm 3 mps 682 mmHg 74%

12 March, Friday

Time Temperature Precipitation Wind Pressure Humidity
00:00 -4°C° 0 mm 3 mps 682 mmHg 74%
01:00 -4°C° 0 mm 3 mps 682 mmHg 73%
02:00 -4°C° 0 mm 3 mps 682 mmHg 73%
03:00 -3°C° 0 mm 2 mps 682 mmHg 71%
04:00 -3°C° 0 mm 2 mps 682 mmHg 69%
05:00 -1°C° 0 mm 1 mps 682 mmHg 68%
06:00 0°C° 0 mm 1 mps 682 mmHg 59%
07:00 0°C° 0 mm 1 mps 683 mmHg 51%
08:00 +1°C° 0 mm 1 mps 683 mmHg 43%
09:00 +3°C° 0 mm 1 mps 683 mmHg 39%
10:00 +5°C° 0 mm 1 mps 683 mmHg 34%
11:00 +6°C° 0 mm 2 mps 684 mmHg 30%
12:00 +8°C° 0 mm 1 mps 683 mmHg 29%
13:00 +10°C° 0 mm 1 mps 683 mmHg 27%
14:00 +11°C° 0 mm 1 mps 683 mmHg 26%
15:00 +11°C° 0 mm 1 mps 682 mmHg 29%
16:00 +11°C° 0 mm 1 mps 682 mmHg 31%
17:00 +11°C° 0 mm 1 mps 682 mmHg 33%
18:00 +10°C° 0 mm 1 mps 682 mmHg 39%
19:00 +8°C° 0 mm 1 mps 682 mmHg 44%
20:00 +6°C° 0 mm 1 mps 682 mmHg 49%
21:00 +5°C° 0 mm 0 mps 682 mmHg 49%
22:00 +5°C° 0 mm 0 mps 681 mmHg 50%
23:00 +4°C° 0 mm 0 mps 681 mmHg 50%
Show more